Location: Gilevgi
(36.8751°N, 30.0581°E)
Time: 20:12:37
(UTC+00:00)

Resurs 1-3 - Pass Details

Date: 11 December 2025
Orbit: 613 x 615 km, 97.7° (Epoch: 12 January)

Event Time Altitude Azimuth Distance (km) Brightness Sun altitude
Rises 16:25:54 0° 163° (SSE) 2,868 7.0 -19.9°
Reaches altitude 10° 16:28:04 10° 161° (SSE) 1,968 6.1 -20.3°
Maximum altitude 16:32:21 76° 76° (ENE) 638 3.4 -21.1°
Drops below altitude 10° 16:36:39 10° 352° (N) 1,982 6.1 -21.9°
Sets 16:38:50 0° 350° (N) 2,891 7.0 -22.4°
